Location: Pitton
(51.0667°N, 1.7000°W)
Time: 06:38:50
(UTC+00:00)

Cosmos 2219 Rocket - Pass Details

Date: 17 September 2019
Orbit: 829 x 845 km, 71.0° (Epoch: 19 October)

Event Time Altitude Azimuth Distance (km) Brightness Sun altitude
Rises 20:33:09 0° 321° (NW) 3,383 6.6 -21.0°
Reaches altitude 10° 20:36:05 10° 307° (NW) 2,445 5.8 -21.3°
Maximum altitude 20:40:14 22° 259° (WSW) 1,752 4.3 -21.9°
Drops below altitude 10° 20:44:23 10° 210° (SSW) 2,437 4.5 -22.4°
Enters shadow 20:46:34 - 198° (SSW) 3,110 5.0 -22.7°
